Weather Roundup
Issued by NWS Springfield, MO

Home | Current Version | Previous Version | Text Only | Print | Product List | Glossary On
Versions: 1 2 3 4 5 6 7 8 9 10 11 12 13 14 15 16 17 18 19 20 21 22 23 24 25 26 27 28 29 30 31 32 33 34 35 36 37 38 39 40 41 42 43 44 45 46 47 48 49 50
000
NZUS99 KSGF 092257
HRRSGF

HOURLY WEATHER
NATIONAL WEATHER SERVICE SPRINGFIELD MO
500 PM CST TUE FEB 09 2016

......SGF CWA......

CITY           SKY/WX    TMP DP  RH WIND       PRES   REMARKS
SPRINGFIELD    CLEAR     32   6  33 NW17G25   30.14R WCI  21
JOPLIN         CLEAR     34   8  33 NW18G28   30.22R WCI  23
WEST PLAINS    CLEAR     31   7  36 NW17G23   30.08R WCI  19
ROLLA          CLOUDY    24  11  57 W20G26    30.08R WCI  10
BRANSON        CLEAR     32   3  29 NW20G25   30.13R WCI  20

......SURROUNDING SGF CWA......

CITY           SKY/WX    TMP DP  RH WIND       PRES   REMARKS
CHANUTE        CLOUDY    35   8  32 N16       30.26R WCI  25
PARSONS        CLEAR     37   8  30 NW18      30.25R WCI  27
COFFEYVILLE    CLEAR     38   9  30 N16G30    30.26R WCI  29
EMPORIA        CLEAR     31   8  38 N17G24    30.26R WCI  19
HARRISON AR    CLEAR     34   6  31 NW12G28   30.12R WCI  25

......KANSAS AND MISSOURI......

CITY           SKY/WX    TMP DP  RH WIND       PRES   REMARKS
KANSAS CTY INT PTCLDY    26   4  38 NW15G26   30.22R WCI  14
SEDALIA        CLEAR     28  11  48 NW18      30.18R WCI  15
ST JOSEPH      CLEAR     27   4  37 N22G32    30.24R WCI  13
ST LOUIS       PTCLDY    25  10  53 NW16G24   30.06R WCI  12
WICHITA        CLOUDY    39  16  39 NW20      30.29R WCI  29
TOPEKA         CLEAR     30   3  31 N18G25    30.28R WCI  18
OLATHE         CLEAR     27   2  34 NW16G23   30.23R WCI  15

......TENNESSEE......

CITY           SKY/WX    TMP DP  RH WIND       PRES   REMARKS
MEMPHIS        NOT AVBL
NASHVILLE      LGT SNOW  25  16  68 NW10      30.02R WCI  15

......ARKANSAS.......

CITY           SKY/WX    TMP DP  RH WIND       PRES   REMARKS
FAYETTEVILLE   CLOUDY    35   9  33 NW17G28   30.17S WCI  25
FT SMITH       CLEAR     46   7  20 NW15G26   30.20R
LITTLE ROCK    PTCLDY    47   2  15 NW22G31   30.11R

......OKLAHOMA.......

CITY           SKY/WX    TMP DP  RH WIND       PRES   REMARKS
TULSA          PTSUNNY   45  15  30 N21       30.24R
PONCA CITY     SUNNY     44  18  35 NW15G24   30.28S
MCALESTER      MOSUNNY   49  17  28 N16G26    30.25R
OKLAHOMA CITY  MOSUNNY   49  21  33 N17       30.28R

......IOWA............

CITY           SKY/WX    TMP DP  RH WIND       PRES   REMARKS
DES MOINES     NOT AVBL
QUAD CITIES    CLOUDY    15   5  64 NW20G28   30.02R WCI  -2

......ILLINOIS........

CITY           SKY/WX    TMP DP  RH WIND       PRES   REMARKS
QUINCY         NOT AVBL
CHICAGO        CLOUDY    17   7  64 NW14      29.90R WCI   3



USA.gov is the U.S. government's official web portal to all federal, state and local government web resources and services.